Zurück zum Katalog

STARLINK-36216

AktivKommunikationVLEO
NORAD 67217·PAYLOAD·🇺🇸 United States

Gestartet Dec 17, 2025 von Vandenberg Space Force Base

Loading…

Nächste Überflüge (nächste 24 Stunden)

TLE

AktuellSource: CelesTrak SupGP

Epoche: Sep 14, 2026, 23:08 UTC

1 67217C 25304AB  26257.96437500 -.00015648  00000+0 -13111-2 0  2574
2 67217  70.0010  57.2509 0003111 275.0206 150.6122 14.98344567    18

Verfolge STARLINK-36216 in Echtzeit mit AllMySat

Download on the App Store